User: anonymous   Login
Location: Boiro
(42.6475°N, 8.8834°W)
Time: 18:42:30
(UTC+01:00)
Language:

Explorer 7 - Orbit

View from above orbital plane
View from above orbital plane
View from above satellite
View from above satellite

Ground track
Ground track

The orbit data is extracted from the following two-line orbital elements,

1 00022U 59009A   21333.93438748  .00001303  00000-0  11800-3 0  9995
2 00022  50.2823 131.8224 0137820 126.5344 234.8385 14.95906933549755
Epoch (UTC): 29 November 2021 22:25:31
Eccentricity: 0.0137820
inclination: 50.2823°
perigee height: 483 km
apogee height: 675 km
right ascension of ascending node: 131.8224°
argument of perigee: 126.5344°
revolutions per day: 14.95906933
mean anomaly at epoch: 234.8385°
orbit number at epoch: 54975

The dashed part of the orbit path shows where the satellite is in the earth's shadow,  

DLR